Find Starlink 11369

NORAD ID: 62095 Int'l Des: 2024-220 Owner: SPXS Country: US Constellation: starlink operational
LEOCIRCULAR

現在のビュー

3D地球を読み込み中...

About Starlink 11369

Starlink 11369 (NORAD 62095) is a starlink constellation satellite (v2 mini d2c) launched Nov 25, 2024 by SPXS of US. It operates in LEO, CIRCULAR orbit with a mass of 960.00 kg.

Starlink 11369について

説明を読み込み中...

次回通過

Passes for default location (London). Set your location on the main map for personalized predictions.

高度履歴

Loading altitude history...

軌道要素

1 62095U 24220H 26171.30560373 .00198198 00000-0 15007-2 0 9997
2 62095 43.0004 144.3913 0003670 249.2174 110.8301 15.71007309 91192
Epoch: Jun 20, 2026 • Age: 39 hours

現在のステータス

高度 361.4 km
速度 7.69 km/s
衛星直下点 -33.34°S, 112.06°E
打ち上げ日 Nov 25, 2024
運用期間 1.5 years
タイプ internet

技術仕様

分類 Payload
質量 960.00 kg
乾燥質量 910.00 kg
総質量 960.00 kg
長さ 0.30 m
直径 4.10 m
スパン 29.00 m
形状 Box + pan
製造者 SPXS
バスタイプ Starlink V2MD
フェーズステータス In Orbit
所有者/国 SPXS/US

Most Searched